Regional Weather Roundup
Issued by NWS

Home | Current Version | Previous Version | Graphics & Text | Print | Product List | Glossary On
Versions: 1 2 3 4 5 6 7 8 9 10 11 12 13 14 15 16 17 18 19 20 21 22 23 24 25 26 27 28 29 30 31 32 33 34 35 36 37 38 39 40 41 42 43 44 45 46 47 48 49 50
000
ASUS43 KOAX 240202
RWRNE

WEATHER ROUNDUP FOR NEBRASKA
NATIONAL WEATHER SERVICE OMAHA NE
800 PM CST MON JAN 23 2017

NOTES: SATELLITE DATA IS BEING USED TO AUGMENT CLOUD COVER ABOVE
       12000 FEET.
       "FAIR" INDICATES FEW OR NO CLOUDS BELOW 12,000 FEET WITH NO
       SIGNIFICANT WEATHER AND/OR OBSTRUCTIONS TO VISIBILITY.

  * THESE STATIONS DO NOT REPORT WEATHER SUCH AS RAIN...SNOW OR FOG.

NEZ001>004-019>022-054>056-240300-
NEBRASKA PANHANDLE

CITY           SKY/WX    TMP DP  RH WIND       PRES   REMARKS
SCOTTSBLUFF    CLOUDY    37  28  70 N8        29.57S WCI  31
ALLIANCE       CLOUDY    31  25  78 E3        29.58R
CHADRON        CLOUDY    26  24  92 NE13      29.68R FOG     WCI  15
KIMBALL        CLOUDY    34  33  94 E7        29.56F WCI  28
SIDNEY         CLOUDY    32  26  78 E3        29.57S
$$

NEZ057>060-069>072-079>082-240300-
SOUTHWEST NEBRASKA

CITY           SKY/WX    TMP DP  RH WIND       PRES   REMARKS
NORTH PLATTE   MOCLDY    35  29  78 E7        29.60S WCI  29
IMPERIAL       CLEAR     35  27  72 E9        29.56F WCI  28
LEXINGTON      CLEAR     35  32  91 SE10      29.63S WCI  27
MCCOOK         MOCLDY    38  31  76 E12       29.57F WCI  30
OGALLALA       CLOUDY    36  29  78 CALM      29.59R
$$

NEZ005>010-023>029-035>040-094-240300-
NORTH CENTRAL NEBRASKA

CITY           SKY/WX    TMP DP  RH WIND       PRES   REMARKS
VALENTINE      MOCLDY    32  27  81 E9        29.66R WCI  24
AINSWORTH      CLEAR     29  28  99 E9        29.66S WCI  20
BROKEN BOW     FOG       33  32  96 E13       29.66R VSB 3/4 WCI  24
O`NEILL        CLOUDY    33  32  94 SE9G17    29.74R WCI  26
ORD            CLOUDY    32  30  92 E9        29.71R FOG     WCI  24
THEDFORD       CLEAR     32  28  86 SE3       29.63R
$$

NEZ041-046>049-061>064-073>077-083>087-240300-
SOUTH CENTRAL NEBRASKA

CITY           SKY/WX    TMP DP  RH WIND       PRES   REMARKS
GRAND ISLAND   CLOUDY    32  32 100 SE14      29.71F FOG     WCI  22
AURORA         CLOUDY    32  32 100 SE15      29.72S FOG     WCI  22
HASTINGS       CLOUDY    34  32  92 SE15      29.71R WCI  24
HEBRON         FOG       33  33 100 E10       29.74S VSB 1   WCI  24
HOLDREGE       CLEAR     33  31  92 E9        29.65S WCI  25
KEARNEY *      CLOUDY    34  30  86 E12       29.68S WCI  25
YORK           PTCLDY    32  32 100 SE14      29.75R WCI  22
$$

NEZ011>018-030>034-042>045-240300-
NORTHEAST NEBRASKA

CITY           SKY/WX    TMP DP  RH WIND       PRES   REMARKS
NORFOLK        CLOUDY    31  28  89 SE8       29.79R WCI  23
ALBION         CLOUDY    34  31  88 E10G16    29.76R WCI  26
BLAIR          CLOUDY    32  30  92 SE12      29.82R WCI  23
FREMONT        CLOUDY    32  30  92 SE8       29.82R WCI  25
TEKAMAH        CLOUDY    32  28  85 SE8       29.83S WCI  25
WAYNE          CLOUDY    32  30  92 E7        29.81R WCI  26
$$

NEZ050>053-065>068-078-088>093-240300-
SOUTHEAST NEBRASKA

CITY           SKY/WX    TMP DP  RH WIND       PRES   REMARKS
LINCOLN        CLOUDY    33  30  88 E12       29.81S WCI  24
OMAHA EPPLEY   CLOUDY    33  27  78 SE9       29.84R WCI  25
BEATRICE       CLOUDY    33  32  95 E7        29.78S FOG     WCI  27
FALLS CITY     CLEAR     31  28  89 E7        29.82S WCI  24
NEBRASKA CITY  PTCLDY    32  30  94 E5        29.83S WCI  27
PLATTSMOUTH    CLOUDY    32  28  83 SE9       29.82F WCI  24
$$

NEZ044-045-051>053-067-240300-
OMAHA AREA

CITY           SKY/WX    TMP DP  RH WIND       PRES   REMARKS
OMAHA EPPLEY   CLOUDY    33  27  78 SE9       29.84R WCI  25
BLAIR          CLOUDY    32  30  92 SE12      29.82R WCI  23
FREMONT        CLOUDY    32  30  92 SE8       29.82R WCI  25
MILLARD        CLOUDY    34  31  87 E6        29.83S WCI  29
OFFUTT AFB     CLOUDY    33  32  99 E9        29.83S WCI  25
PLATTSMOUTH    CLOUDY    32  28  83 SE9       29.82F WCI  24
WAHOO          CLOUDY    32  30  92 E10       29.81S WCI  24
$$




USA.gov is the U.S. government's official web portal to all federal, state and local government web resources and services.